Vertical_Velocity
-3 -2 -2 -5 -6 -0 -1 -1 -3 -4 1 1 1 10 3 0 -3 -10 -7 6 4 8 -0 0 -1 0 -2 -3 -1 0 -1 0 1 -0 -1 -1 -1 -1 -0 -0 -1 -1 -1 -1
0 -1 0 0 1 1 3 1 1 -4 -1 2 5 4 6 -1 2 7 5 -1 7 -7 2 -3 -3 0 -2 -3 -0 -0 1 1 0 -1 -1 -1 -1 0 1 0 -1 -1 -1 -1
-2 -0 -2 -1 -1 0 2 2 1 2 -1 1 6 3 1 -2 -2 5 -1 8 -11 -3 3 -3 -1 -3 -1 -2 -1 1 0 0 0 -0 -1 -2 -1 -0 -1 -1 -1 -1 -0 -1
0 1 2 -1 1 -3 -0 0 1 -1 -1 1 4 -10 -4 -2 0 -1 0 -4 3 -1 3 0 -1 -2 -3 -0 -1 -0 -0 -0 -0 -0 -0 0 -0 -1 -1 -1 0 1 0 0
0 -4 0 0 4 2 2 -9 2 2 -1 4 -0 1 2 -2 -12 -7 -3 5 5 1 3 3 -4 -6 2 1 -0 -1 -1 -0 0 0 0 -0 -1 -1 -0 -1 1 1 1 -0
-1 -1 -3 -0 1 3 3 0 -3 -4 -2 -14 -10 -11 -3 -18 -5 12 1 2 -3 -4 -3 -1 -7 -0 2 0 -1 -1 -1 -1 -0 0 -0 -0 0 -0 0 1 -1 -1 -1 -0
0 0 0 -4 1 -2 -2 -1 -1 -5 -10 0 -0 -8 4 4 5 1 3 1 4 -11 -5 -5 -2 0 -2 -1 -0 -1 -1 -1 -0 0 0 -0 -0 1 -0 -1 -1 -2 -2 -0
-4 -1 -1 1 -6 1 1 -1 -4 -3 -2 10 1 -28 -5 4 -1 -0 1 5 -5 -17 -4 -0 -1 1 -0 -0 -1 -0 -0 1 1 -0 0 0 -0 -0 -0 -1 -1 -0 -0 -1
-4 -2 -1 -1 -2 -2 -3 -0 4 -1 -3 -5 1 0 2 -1 3 7 8 -1 1 0 2 5 -1 -1 -1 -0 -2 -0 0 -0 -0 -1 -1 -0 -0 0 1 1 -0 -1 -2 -2
-1 -2 -2 0 -3 -1 6 1 -2 -1 -3 -3 -2 -6 -3 -2 4 7 0 11 3 0 -2 2 1 -1 -2 -1 -1 -1 1 0 -0 0 2 0 0 0 0 0 -1 -0 -0 -1
3 -2 -4 -3 2 -0 1 -1 -3 3 0 1 -1 1 18 11 -3 -4 -0 -3 -2 -1 -0 -1 -3 -3 -1 0 1 2 1 0 1 1 -0 0 1 2 0 -0 1 1 -1 -1
-2 0 -2 -1 -3 -3 -4 -2 0 -4 1 0 -0 2 0 -2 -2 4 4 2 -0 -1 -1 -1 -1 -0 2 2 0 -1 -1 1 2 2 2 2 1 0 2 0 -2 -2 -0 -0
0 -1 1 -1 -2 -3 -3 -1 -0 0 -0 2 -2 7 2 -1 -0 2 1 -0 -2 -4 -3 -3 -1 0 -4 -1 0 1 3 2 2 2 2 1 0 -2 -2 -0 -1 -1 -1 -1
0 0 -0 2 1 0 -2 2 -1 -2 -3 4 3 -1 -1 -2 -0 -1 -2 0 -0 1 1 2 4 3 2 3 4 4 3 4 1 -0 -1 -1 -1 -0 -0 0 -0 0 1 0
2 2 1 -1 2 1 -0 0 3 0 1 -1 4 3 0 -4 -1 -1 -0 -2 1 2 3 3 4 4 5 4 1 -0 1 0 -0 -0 1 1 2 1 1 1 1 2 1 0
2 3 1 2 -1 3 2 0 0 -1 0 -1 -5 3 -4 5 3 2 -5 -3 4 6 6 3 0 -1 -0 -2 -2 -1 -2 -2 0 2 1 -0 -0 1 1 1 1 1 1 -0
4 -2 2 3 2 -0 4 1 -1 -0 -3 -3 1 3 -5 -5 -5 -1 4 7 1 -2 -2 0 1 3 3 2 2 1 1 1 2 2 3 4 2 0 0 -0 1 1 0 -0
2 0 -0 2 -1 2 3 -0 -1 2 -1 -5 -0 2 -1 1 0 -1 -4 -1 0 -2 0 -1 -3 -4 -2 -0 2 0 2 1 2 1 -2 -1 -0 -1 -0 0 -0 -0 -1 -2
-0 -2 -4 -8 6 -1 2 2 3 -1 1 -1 2 -1 -2 1 4 -5 4 0 -2 -1 -0 2 1 1 2 3 -0 2 2 -1 -1 -1 2 1 0 1 1 -0 -1 -1 0 0
0 -1 -3 -1 -7 -2 4 0 3 -5 6 5 -4 -2 2 1 1 0 2 2 0 0 0 -1 -0 2 3 1 2 -1 -1 2 1 1 0 1 1 0 0 2 1 0 -0 0
2 0 3 -7 -7 2 3 -4 -2 3 -5 -7 0 1 -0 -3 -3 1 2 1 2 2 2 1 -0 0 -0 2 3 3 1 3 -2 4 1 -0 1 2 2 2 2 1 1 0
3 -4 4 -4 -1 4 -1 1 1 -5 -4 -1 -2 -1 -1 1 0 3 -0 -2 -2 -1 1 2 2 3 3 3 1 2 6 -2 5 1 2 2 1 0 -0 -0 -0 1 2 2
-6 -2 -3 -5 7 2 -2 -3 -2 -2 -2 -9 -4 -3 -1 2 -2 4 2 2 2 3 2 0 0 1 0 -1 -1 1 -7 -0 -2 2 2 1 -0 0 2 1 2 1 0 0
9 5 -3 -9 19 8 -6 -5 -1 -5 -5 -7 1 -0 -2 -2 2 6 4 4 4 1 -0 1 1 1 1 -1 1 0 3 1 1 -2 -2 1 1 1 -0 0 0 1 2 3
9 7 8 -10 16 -2 7 -1 -7 -5 -3 -0 -2 1 2 -3 3 -2 2 -1 0 5 5 4 0 2 -1 2 4 1 2 2 1 2 2 1 2 3 3 2 1 1 1 5
18 10 -3 -12 11 -18 12 3 -0 -2 -2 -4 -1 1 -1 -0 5 -1 0 -0 1 -1 1 3 2 0 0 0 -0 3 1 -0 2 3 2 0 1 -1 -1 2 3 5 3 2
Height
5680 5681 5682 5684 5687 5692 5695 5699 5705 5710 5716 5725 5735 5746 5755 5765 5773 5782 5787 5798 5805 5811 5817 5822 5827 5830 5832 5834 5836 5837 5838 5838 5838 5839 5839 5839 5840 5840 5841 5842 5842 5843 5842 5842
5678 5679 5680 5682 5685 5689 5694 5698 5703 5708 5713 5720 5727 5738 5748 5757 5767 5775 5782 5790 5797 5804 5812 5817 5821 5823 5826 5829 5830 5832 5833 5833 5833 5833 5833 5834 5834 5834 5835 5835 5836 5836 5836 5835
5675 5676 5678 5679 5682 5687 5691 5696 5699 5705 5710 5715 5721 5729 5740 5749 5758 5766 5774 5782 5790 5798 5804 5810 5815 5818 5821 5823 5825 5826 5827 5828 5828 5828 5828 5828 5828 5828 5829 5829 5829 5829 5829 5828
5675 5675 5676 5678 5680 5685 5690 5694 5696 5700 5704 5710 5715 5723 5733 5742 5750 5760 5770 5781 5787 5794 5800 5804 5808 5812 5814 5817 5820 5821 5822 5822 5823 5823 5823 5823 5822 5822 5822 5823 5823 5823 5821 5820
5677 5676 5676 5677 5680 5684 5689 5691 5694 5696 5700 5705 5710 5717 5725 5734 5743 5755 5766 5774 5781 5789 5793 5798 5802 5806 5809 5811 5813 5815 5816 5817 5817 5817 5817 5816 5816 5816 5816 5816 5815 5814 5813 5811
5679 5678 5678 5679 5680 5682 5686 5688 5692 5694 5696 5701 5706 5710 5717 5728 5744 5751 5759 5767 5774 5779 5784 5790 5795 5799 5802 5804 5806 5808 5810 5810 5811 5811 5811 5810 5810 5809 5808 5807 5806 5805 5804 5802
5680 5680 5679 5678 5681 5683 5685 5686 5688 5691 5693 5697 5700 5705 5718 5726 5736 5747 5754 5762 5768 5773 5775 5784 5789 5792 5794 5797 5799 5801 5803 5803 5804 5804 5804 5803 5802 5801 5800 5799 5798 5797 5795 5794
5681 5680 5679 5679 5680 5682 5683 5685 5687 5689 5689 5694 5695 5697 5712 5721 5729 5739 5748 5755 5761 5768 5773 5778 5782 5786 5789 5791 5792 5793 5795 5796 5796 5796 5796 5795 5793 5793 5792 5791 5790 5788 5786 5784
5682 5680 5679 5678 5679 5681 5680 5682 5685 5686 5686 5689 5694 5697 5704 5713 5722 5732 5740 5747 5756 5761 5766 5771 5774 5778 5781 5783 5784 5785 5786 5787 5787 5787 5786 5786 5785 5785 5783 5782 5779 5778 5776 5774
5685 5680 5678 5677 5677 5678 5679 5680 5681 5680 5682 5684 5687 5693 5701 5712 5720 5726 5734 5742 5747 5753 5759 5764 5768 5771 5773 5775 5776 5777 5777 5778 5778 5777 5777 5777 5776 5774 5772 5771 5769 5768 5767 5765
5685 5683 5680 5675 5675 5675 5677 5677 5677 5678 5680 5680 5683 5690 5697 5707 5716 5723 5731 5737 5743 5749 5754 5757 5760 5763 5764 5766 5767 5767 5767 5767 5767 5767 5766 5765 5764 5763 5762 5761 5760 5759 5757 5755
5686 5683 5680 5677 5674 5673 5674 5674 5675 5676 5679 5678 5680 5688 5693 5703 5712 5719 5726 5731 5737 5742 5746 5750 5752 5754 5756 5756 5757 5757 5757 5756 5757 5756 5756 5755 5754 5753 5752 5751 5750 5749 5747 5744
5687 5684 5681 5679 5677 5673 5672 5672 5673 5674 5675 5676 5678 5688 5692 5701 5708 5714 5720 5726 5730 5735 5738 5740 5743 5744 5745 5745 5745 5746 5746 5746 5746 5745 5745 5745 5744 5743 5742 5741 5739 5737 5735 5732
5685 5683 5681 5679 5677 5675 5673 5671 5670 5670 5671 5674 5677 5687 5693 5699 5704 5708 5714 5719 5723 5726 5729 5731 5732 5733 5734 5734 5734 5735 5735 5735 5735 5735 5734 5734 5733 5732 5730 5729 5727 5726 5724 5721
5685 5682 5679 5678 5676 5676 5675 5674 5672 5672 5673 5675 5682 5687 5693 5696 5699 5703 5706 5710 5712 5715 5717 5719 5719 5719 5720 5721 5722 5723 5724 5724 5724 5724 5723 5722 5721 5720 5718 5717 5715 5713 5711 5709
5680 5680 5678 5675 5675 5674 5675 5674 5674 5675 5675 5677 5679 5685 5686 5688 5690 5694 5696 5698 5701 5702 5703 5704 5706 5709 5710 5711 5711 5712 5713 5713 5712 5711 5711 5710 5709 5707 5706 5705 5702 5700 5697 5695
5675 5674 5674 5675 5670 5673 5674 5672 5673 5674 5674 5675 5678 5680 5678 5679 5679 5681 5683 5687 5692 5695 5697 5699 5700 5700 5701 5701 5701 5702 5702 5702 5701 5700 5699 5698 5697 5695 5693 5691 5689 5686 5684 5682
5670 5667 5667 5668 5668 5669 5670 5669 5669 5669 5671 5672 5674 5673 5674 5675 5677 5678 5679 5682 5684 5685 5686 5687 5687 5688 5688 5687 5688 5688 5688 5688 5687 5686 5685 5684 5682 5680 5678 5676 5674 5673 5671 5669
5662 5661 5659 5659 5660 5663 5665 5664 5663 5664 5667 5665 5666 5665 5667 5669 5672 5672 5669 5672 5674 5675 5676 5676 5675 5675 5674 5675 5675 5675 5674 5674 5673 5672 5670 5669 5667 5665 5663 5661 5659 5657 5655 5652
5651 5651 5651 5650 5649 5651 5657 5657 5655 5655 5660 5654 5657 5658 5658 5658 5660 5660 5660 5662 5662 5663 5663 5663 5663 5663 5663 5663 5661 5660 5659 5658 5658 5655 5655 5653 5651 5649 5647 5645 5643 5641 5639 5637
5638 5638 5639 5638 5637 5638 5647 5644 5646 5647 5648 5647 5645 5644 5646 5647 5647 5647 5647 5647 5648 5649 5650 5650 5650 5649 5648 5647 5647 5646 5645 5644 5641 5641 5639 5637 5634 5632 5630 5628 5627 5625 5622 5620
5624 5625 5627 5627 5626 5627 5631 5634 5636 5635 5633 5630 5630 5630 5630 5631 5631 5632 5632 5633 5634 5635 5635 5635 5634 5634 5633 5632 5631 5629 5628 5626 5626 5624 5622 5620 5617 5615 5613 5612 5610 5608 5606 5603
5609 5612 5613 5615 5616 5616 5617 5617 5617 5616 5616 5615 5613 5613 5615 5618 5617 5617 5619 5619 5618 5618 5618 5618 5618 5617 5616 5615 5614 5613 5611 5610 5608 5606 5604 5603 5601 5600 5597 5595 5593 5591 5588 5586
5595 5594 5595 5596 5603 5603 5604 5603 5601 5597 5595 5594 5598 5601 5601 5602 5602 5604 5602 5601 5602 5602 5601 5600 5600 5599 5598 5597 5595 5594 5593 5591 5590 5589 5587 5586 5584 5582 5579 5577 5575 5573 5571 5569
5577 5577 5580 5582 5584 5585 5586 5586 5584 5583 5581 5581 5581 5583 5585 5585 5587 5586 5586 5587 5585 5584 5584 5584 5583 5582 5580 5577 5575 5575 5574 5573 5571 5570 5569 5568 5566 5564 5562 5560 5558 5556 5554 5552
5562 5563 5561 5565 5569 5565 5569 5568 5568 5569 5569 5568 5569 5570 5570 5569 5570 5571 5571 5569 5568 5567 5567 5566 5565 5564 5562 5561 5560 5559 5557 5556 5554 5553 5551 5550 5549 5547 5545 5543 5541 5539 5536 5533